Regional Weather Roundup
Issued by NWS

Home | Current Version | Previous Version | Text Only | Print | Product List | Glossary Off
Versions: 1 2 3 4 5 6 7 8 9 10 11 12 13 14 15 16 17 18 19 20 21 22 23 24 25 26 27 28 29 30 31 32 33 34 35 36 37 38 39 40 41 42 43 44 45 46 47 48 49 50

000
ASUS43 KDMX 180806
RWRIA

WEATHER ROUNDUP FOR IOWA
NATIONAL WEATHER SERVICE DES MOINES IA
200 AM CST MON DEC 18 2017

NOTE: "FAIR" INDICATES FEW OR NO CLOUDS BELOW 12,000 FEET WITH NO
SIGNIFICANT WEATHER AND/OR OBSTRUCTIONS TO VISIBILITY.

* - THESE STATIONS ARE NOT NWS STATIONS...THUS NOT UNDER NWS
QUALITY CONTROL.  THEY ALSO DO NOT REPORT WEATHER SUCH
AS PRECIPITATION OR FOG.

IAZ001>003-012>014-020>022-031>034-043>046-180900-
   NORTHWEST IOWA

CITY           SKY/WX    TMP DP  RH WIND       PRES   REMARKS
CARROLL *      PTCLDY    23  21  93 SW6       29.93F FOG     WCI  16
CHEROKEE *     CLEAR     20  20 100 S6        29.92F FOG     WCI  12
DENISON *      PTCLDY    21  21 100 CALM      29.96S FOG
LE MARS *      CLOUDY    23  23 100 S8        29.90F WCI  14
ORANGE CITY *  CLOUDY    25  25 100 S5        29.89F WCI  19
SHELDON *      CLOUDY    25  25 100 S6        29.87F WCI  18
SIOUX CITY     CLOUDY    18  17  96 E7        29.93F WCI   9
SPENCER        CLOUDY    26  24  92 W5        29.91F FOG     WCI  20
STORM LAKE *   CLEAR     23  21  93 SW8       29.91F FOG     WCI  14
$$

IAZ055>058-069>071-079>083-090>094-180900-
   SOUTHWEST IOWA

CITY           SKY/WX    TMP DP  RH WIND       PRES   REMARKS
ATLANTIC *     CLEAR     21  21 100 S5        29.96F FOG     WCI  15
AUDUBON *      CLOUDY    25  21  86 CALM      29.94F FOG
CLARINDA *     CLOUDY    30  30 100 CALM      30.02  FOG
COUNCIL BLFS * CLOUDY    28  28 100 SW7       29.96S WCI  21
CRESTON *      FOG       30  30 100 W8        29.98R VSB<1/4 WCI  23
HARLAN  *      CLEAR     21  21 100 CALM      29.99F FOG
LAMONI         CLOUDY    35  34  96 W6        29.98S FOG     WCI  30
RED OAK *      FOG       27  27 100 S6        29.99S VSB<1/4 WCI  20
SHENANDOAH *   PTCLDY    28  28 100 S3        30.00F FOG
$$

IAZ047>049-059>061-072>074-084-180900-
   CENTRAL IOWA

CITY           SKY/WX    TMP DP  RH WIND       PRES   REMARKS
AMES           PTCLDY    22  22 100 W7        29.96S FOG     WCI  13
ANKENY *       PTCLDY    27  25  93 CALM      29.98S FOG
BOONE *        PTCLDY    25  23  93 W6        29.94S FOG     WCI  18
CHARITON *     CLOUDY    34  32  93 SW6       29.96S WCI  29
DES MOINES     PTCLDY    27  24  89 SW5       29.97R FOG     WCI  22
GRINNELL*      PTCLDY    29  27  94 SW7       29.95S FOG     WCI  21
KNOXVILLE *    CLOUDY    34  32  93 W6        29.95R FOG     WCI  29
MARSHALLTOWN   CLOUDY    22  22 100 W7        29.94S FOG     WCI  13
NEWTON *       CLOUDY    27  27 100 W7        29.96R FOG     WCI  19
PELLA *        CLOUDY    32  31  95 W3        29.97R FOG
PERRY *          N/A     21  20  95 SW6       29.96S FOG     WCI  14
$$

IAZ004>006-015-016-023>025-035-036-180900-
   NORTH CENTRAL IOWA

CITY           SKY/WX    TMP DP  RH WIND       PRES   REMARKS
ALGONA *       PTCLDY    25  25 100 SW9       29.91S FOG     WCI  15
CLARION *      FOG       21  21 100 S7        29.92F VSB 1/2 WCI  13
ESTHERVILLE    CLOUDY    28  27  96 W6        29.89F WCI  22
FORT DODGE *   CLEAR     21  20  96 SW6       29.93F FOG     WCI  13
MASON CITY     CLOUDY    27  25  92 W9        29.92F FOG     WCI  18
FOREST CITY *  CLOUDY    28  28 100 SW3       29.91F FOG
WEBSTER CITY * FOG       21  19  93 SW8       29.92S VSB<1/4 WCI  12
IOWA FALLS *   CLOUDY    31  28  90 SW7       29.94F FOG     WCI  24
$$

IAZ007>011-017>019-026>030-037>042-050>054-066-180900-
   NORTHEAST IOWA

CITY           SKY/WX    TMP DP  RH WIND       PRES   REMARKS
CEDAR RAPIDS   MOCLDY    33  32  96 SW7       29.93S FOG     WCI  27
CLINTON *      FOG       37  37 100 W7        29.95S VSB 1/4 WCI  32
DECORAH *      CLOUDY    30  30 100 CALM      29.89F FOG
DUBUQUE        FOG       34  33  96 SW8       29.90F VSB 1/4 WCI  27
MONTICELLO *   CLOUDY    36  36 100 SW3       29.92S FOG
OELWEIN *      CLOUDY    30  30 100 W7        29.92S FOG     WCI  23
WATERLOO       CLOUDY    30  28  92 CALM      29.93F FOG
$$

IAZ064-065-067-068-078-180900-
   EAST CENTRAL IOWA

CITY           SKY/WX    TMP DP  RH WIND       PRES   REMARKS
DAVENPORT      FOG       39  38  96 W12       29.97R VSB 1/2 WCI  32
IOWA CITY      CLOUDY    37  35  92 SW3       29.96F
MT. PLEASANT * CLOUDY    41  41 100 SW7       29.97S FOG
MUSCATINE *    CLOUDY    41  39  93 W5        29.97S FOG
QUAD CITIES    CLOUDY    43  41  93 W13       29.96R
$$

IAZ062-063-075>077-085>089-095>099-180900-
   SOUTHEAST IOWA

CITY           SKY/WX    TMP DP  RH WIND       PRES   REMARKS
BURLINGTON     CLOUDY    43  43 100 SW7       29.97S
FAIRFIELD *    FOG       39  39 100 W5        29.96S VSB 3/4
FORT MADISON * CLOUDY    45  43  93 SW6       29.99S
KEOKUK *       CLOUDY    45  43  93 SW6       29.98S
OSKALOOSA *    CLOUDY    35  35  98 W5        29.97S FOG     WCI  31
OTTUMWA        FOG       38  38 100 W5        29.96S VSB 1   WCI  34
WASHINGTON *   CLOUDY    37  37 100 W7        29.97S FOG     WCI  32
$$

ABBREVIATIONS USED IN REMARKS
   TC - TEMPERATURES IN CELSIUS
  WCI - WIND CHILL INDEX
   HX - HEAT INDEX
  VSB - VISIBILITY
$$





USA.gov is the U.S. government's official web portal to all federal, state and local government web resources and services.